Regional Weather Roundup
Issued by NWS Memphis, TN

Home | Current Version | Previous Version | Text Only | Print | Product List | Glossary On
Versions: 1 2 3 4 5 6 7 8 9 10 11 12 13 14 15 16 17 18 19 20 21 22 23 24 25 26 27 28 29 30 31 32 33 34 35 36 37 38 39 40 41 42 43 44 45 46 47 48 49 50
000
ASUS44 KMEG 210110
RWRMEG
MEMPHIS CWA HOURLY WEATHER ROUNDUP
NATIONAL WEATHER SERVICE MEMPHIS TN
700 PM CST MON NOV 20 2017

...WEST TENNESSEE...

CITY           SKY/WX    TMP DP  RH WIND       PRES   REMARKS
MEMPHIS INTL   PTCLDY    44  28  53 S5        30.08S
NWS MEMPHIS      N/A     41 N/A N/A MISG        N/A
JACKSON        CLEAR     39  28  64 S5        30.08S
COVINGTON      CLEAR     37  28  70 S5        30.07F WCI  34
SOMERVILLE     CLEAR     43  27  52 S3        30.07S
BOLIVAR        CLEAR     39  28  65 CALM      30.08S
LEXINGTON      CLEAR     41  27  56 CALM      30.08S
SELMER         CLEAR     43  27  52 S3        30.09S
SAVANNAH       CLEAR     36  34  93 CALM      30.09S
DYERSBURG      CLEAR     45  27  49 CALM      30.08R
UNION CITY     CLEAR     43  27  52 S6        30.05S
PARIS          CLEAR     41  23  48 S6        30.06S
HUNTINGDON     CLEAR     43  23  45 SW3       30.06F


...EASTERN ARKANSAS...

CITY           SKY/WX    TMP DP  RH WIND       PRES   REMARKS
JONESBORO      CLEAR     43  31  62 S6        30.05S
WEST MEMPHIS   CLEAR     42  30  62 S10       30.07F
BATESVILLE     CLEAR     48  28  46 S8        30.02F
NEWPORT        CLOUDY    45  32  60 S13       30.05S
WALNUT RIDGE     N/A     43  31  62 S12       30.03
BLYTHEVILLE    CLEAR     43  32  65 S3        30.07R
SEARCY         CLEAR     44  30  57 S5        30.05S
STUTTGART      CLEAR     44  31  60 S10       30.06F
PINE BLUFF     CLOUDY    45  28  51 SE9       30.07F
MONTICELLO     CLEAR     46  33  60 S5        30.08F


...NORTH MISSISSIPPI...

CITY           SKY/WX    TMP DP  RH WIND       PRES   REMARKS
TUPELO         CLOUDY    44  28  53 SE8       30.11S
OXFORD         CLOUDY    37  32  81 CALM      30.11S
BATESVILLE     CLOUDY    37  32  81 CALM      30.11S
OLIVE BRANCH   MOCLDY   N/A N/A N/A CALM      30.06S
TUNICA           N/A    N/A N/A N/A S5        30.10S
CLARKSDALE       N/A     45  28  53 S6        30.10S
CORINTH        CLOUDY    37  30  75 CALM      30.10S
GREENWOOD      CLOUDY    41  33  73 S3        30.10F
COLUMBUS       CLOUDY    42  33  72 CALM      30.13S
STARKVILLE     PTCLDY    41  32  70 CALM      30.14F
GOLDEN TRIANGL PTCLDY    46  29  51 SE6       30.14S


...SOUTHEAST MISSOURI...

CITY           SKY/WX    TMP DP  RH WIND       PRES   REMARKS
KENNETT          N/A     48  28  46 S9        30.03F
MALDEN         CLEAR     46  30  53 S9        30.04F
WEST PLAINS    CLEAR     48  26  42 S9        29.95F
POPLAR BLUFF   CLEAR     44  31  60 S7        30.02F
CAPE GIRARDEAU CLEAR     43  30  60 S9        30.01F


...NORTHWEST ALABAMA...

CITY           SKY/WX    TMP DP  RH WIND       PRES   REMARKS
MUSCLE SHOALS  CLOUDY    40  32  73 SE5       30.12S


...MIDDLE TENNESSEE...

CITY           SKY/WX    TMP DP  RH WIND       PRES   REMARKS
NASHVILLE      PTCLDY    42  28  57 S5        30.09F
CLARKSVILLE    CLEAR     41  23  48 SE6       30.06F
COLUMBIA       CLEAR     37  27  65 S3        30.08S


...WESTERN KENTUCKY...

CITY           SKY/WX    TMP DP  RH WIND       PRES   REMARKS
PADUCAH        CLEAR     46  22  38 VRB3      30.04S
FORT CAMPBELL  CLEAR     46  22  39 SE7       30.05F


...CENTRAL ARKANSAS...

CITY           SKY/WX    TMP DP  RH WIND       PRES   REMARKS
LITTLE ROCK    PTCLDY    44  30  57 S8        30.05F


SKY/WX REPORTED AS FAIR MEANS FEW OR NO CLOUDS BELOW
12 THOUSAND FEET.





USA.gov is the U.S. government's official web portal to all federal, state and local government web resources and services.